User: anonymous   Login
Location: Ladysmith
(45.4630°N, 91.1040°W)
Time: 07:27:48
(UTC-05:00)
Language:

SO-67 - Orbit

View from above orbital plane
View from above orbital plane
View from above satellite
View from above satellite

Ground track
Ground track

The orbit data is extracted from the following two-line orbital elements,

1 35870U 09049F   15150.12006065  .00007399  00000-0  17784-3 0  9995
2 35870 097.1359 166.8374 0001041 085.6848 000.0643 15.41607621317332
Epoch (UTC): 30 May 2015 02:52:53
Eccentricity: 0.0001041
inclination: 97.1359°
perigee height: 440 km
apogee height: 442 km
right ascension of ascending node: 166.8374°
argument of perigee: 85.6848°
revolutions per day: 15.41607621
mean anomaly at epoch: 0.0643°
orbit number at epoch: 31733

The dashed part of the orbit path shows where the satellite is in the earth's shadow,  

DLR